• în România
  • Lista ţărilor
  • Pe 7 zile
  • Temperatura apei
  • Hartă satelitară
  • Meteo pe hartă
  • Widget-uri
  • user-avatar
    Intrare

    Meteo pe oră la Saurimo

    Astăzi, 13 Decembrie, Miercuri

    Timp Temperatura Precipitaţii Vânt Presiune Umiditate
    00:00 +21°C° 0,2 mm 1 m/s 670 mmHg 97%
    01:00 +18°C° 0 mm 0 m/s 670 mmHg 97%
    02:00 +18°C° 0,2 mm 0 m/s 670 mmHg 97%
    03:00 +18°C° 0,2 mm 0 m/s 670 mmHg 97%
    04:00 +18°C° 0,2 mm 0 m/s 670 mmHg 97%
    05:00 +18°C° 0,1 mm 0 m/s 670 mmHg 96%
    06:00 +19°C° 0,1 mm 0 m/s 671 mmHg 95%
    07:00 +20°C° 0 mm 0 m/s 671 mmHg 94%
    08:00 +21°C° 0,5 mm 0 m/s 671 mmHg 91%
    09:00 +24°C° 0,5 mm 1 m/s 671 mmHg 87%
    10:00 +25°C° 0,5 mm 1 m/s 671 mmHg 84%
    11:00 +26°C° 0,5 mm 1 m/s 671 mmHg 80%
    12:00 +26°C° 0,5 mm 1 m/s 670 mmHg 76%
    13:00 +27°C° 0,5 mm 2 m/s 670 mmHg 72%
    14:00 +26°C° 0,8 mm 2 m/s 670 mmHg 77%
    15:00 +26°C° 0,8 mm 2 m/s 669 mmHg 83%
    16:00 +25°C° 0,8 mm 1 m/s 669 mmHg 88%
    17:00 +24°C° 0,4 mm 1 m/s 669 mmHg 90%
    18:00 +23°C° 0,4 mm 1 m/s 670 mmHg 93%
    19:00 +22°C° 0,4 mm 1 m/s 670 mmHg 96%
    20:00 +21°C° 0,2 mm 1 m/s 670 mmHg 96%
    21:00 +21°C° 0,2 mm 1 m/s 671 mmHg 96%
    22:00 +21°C° 0,2 mm 1 m/s 671 mmHg 97%
    23:00 +21°C° 0,2 mm 1 m/s 671 mmHg 97%

    Mâine, 14 Decembrie, Joi

    Timp Temperatura Precipitaţii Vânt Presiune Umiditate
    00:00 +20°C° 0,2 mm 1 m/s 671 mmHg 97%
    01:00 +20°C° 0,2 mm 1 m/s 671 mmHg 97%
    02:00 +20°C° 0,1 mm 1 m/s 670 mmHg 97%
    03:00 +20°C° 0,1 mm 1 m/s 670 mmHg 97%
    04:00 +20°C° 0,1 mm 1 m/s 670 mmHg 97%
    05:00 +21°C° 0,1 mm 1 m/s 671 mmHg 96%
    06:00 +21°C° 0,1 mm 1 m/s 671 mmHg 95%
    07:00 +22°C° 0,1 mm 1 m/s 671 mmHg 94%
    08:00 +23°C° 0,7 mm 2 m/s 672 mmHg 91%
    09:00 +24°C° 0,7 mm 2 m/s 672 mmHg 88%
    10:00 +25°C° 0,7 mm 2 m/s 672 mmHg 84%
    11:00 +26°C° 1,1 mm 3 m/s 671 mmHg 83%
    12:00 +26°C° 1,1 mm 3 m/s 671 mmHg 82%
    13:00 +26°C° 1,1 mm 3 m/s 670 mmHg 81%
    14:00 +26°C° 0,6 mm 3 m/s 670 mmHg 82%
    15:00 +26°C° 0,6 mm 2 m/s 669 mmHg 83%
    16:00 +26°C° 0,6 mm 2 m/s 669 mmHg 83%
    17:00 +24°C° 0,3 mm 2 m/s 669 mmHg 87%
    18:00 +23°C° 0,3 mm 1 m/s 669 mmHg 91%
    19:00 +22°C° 0,3 mm 1 m/s 669 mmHg 95%
    20:00 +21°C° 0 mm 1 m/s 669 mmHg 96%
    21:00 +21°C° 0 mm 1 m/s 670 mmHg 96%
    22:00 +20°C° 0 mm 1 m/s 670 mmHg 97%
    23:00 +20°C° 0 mm 1 m/s 670 mmHg 97%

    Poimâine, 15 Decembrie, Vineri

    Timp Temperatura Precipitaţii Vânt Presiune Umiditate
    00:00 +20°C° 0 mm 1 m/s 669 mmHg 97%
    01:00 +20°C° 0 mm 1 m/s 669 mmHg 97%
    02:00 +19°C° 0 mm 1 m/s 669 mmHg 97%
    03:00 +19°C° 0 mm 1 m/s 669 mmHg 97%
    04:00 +17°C° 0 mm 0 m/s 668 mmHg 97%
    05:00 +18°C° 0 mm 0 m/s 669 mmHg 95%
    06:00 +19°C° 0 mm 0 m/s 670 mmHg 93%
    07:00 +20°C° 0 mm 0 m/s 670 mmHg 92%
    08:00 +21°C° 0,2 mm 0 m/s 671 mmHg 86%
    09:00 +25°C° 0,2 mm 1 m/s 671 mmHg 80%
    10:00 +26°C° 0,2 mm 1 m/s 671 mmHg 75%
    11:00 +28°C° 0,3 mm 2 m/s 671 mmHg 68%
    12:00 +29°C° 0,3 mm 2 m/s 670 mmHg 61%
    13:00 +30°C° 0,3 mm 3 m/s 670 mmHg 54%
    14:00 +30°C° 0 mm 2 m/s 669 mmHg 57%
    15:00 +29°C° 0 mm 2 m/s 669 mmHg 61%
    16:00 +29°C° 0 mm 2 m/s 668 mmHg 65%
    17:00 +27°C° 0,1 mm 1 m/s 668 mmHg 71%
    18:00 +25°C° 0,1 mm 1 m/s 669 mmHg 76%
    19:00 +21°C° 0,1 mm 0 m/s 669 mmHg 82%
    20:00 +20°C° 0,3 mm 0 m/s 669 mmHg 84%
    21:00 +22°C° 0,3 mm 1 m/s 669 mmHg 86%
    22:00 +21°C° 0,3 mm 1 m/s 669 mmHg 88%
    23:00 +21°C° 0,9 mm 1 m/s 669 mmHg 90%

    16 Decembrie, Sâmbătă

    Timp Temperatura Precipitaţii Vânt Presiune Umiditate
    00:00 +21°C° 0,9 mm 1 m/s 669 mmHg 92%
    01:00 +19°C° 0,9 mm 0 m/s 668 mmHg 94%
    02:00 +19°C° 1 mm 0 m/s 668 mmHg 95%
    03:00 +19°C° 1 mm 0 m/s 668 mmHg 95%
    04:00 +19°C° 1 mm 0 m/s 668 mmHg 96%
    05:00 +19°C° 0 mm 0 m/s 669 mmHg 94%
    06:00 +20°C° 0 mm 0 m/s 670 mmHg 93%
    07:00 +21°C° 0 mm 0 m/s 670 mmHg 92%
    08:00 +22°C° 0,8 mm 0 m/s 671 mmHg 87%
    09:00 +24°C° 0,8 mm 0 m/s 671 mmHg 81%
    10:00 +26°C° 0,8 mm 0 m/s 671 mmHg 76%
    11:00 +28°C° 1,3 mm 1 m/s 670 mmHg 77%
    12:00 +28°C° 1,3 mm 1 m/s 670 mmHg 77%
    13:00 +28°C° 1,3 mm 2 m/s 669 mmHg 77%
    14:00 +27°C° 0,8 mm 2 m/s 669 mmHg 78%
    15:00 +27°C° 0,8 mm 2 m/s 668 mmHg 79%
    16:00 +27°C° 0,8 mm 2 m/s 668 mmHg 80%
    17:00 +25°C° 1,3 mm 2 m/s 669 mmHg 85%
    18:00 +24°C° 1,3 mm 2 m/s 669 mmHg 89%
    19:00 +21°C° 1,3 mm 2 m/s 669 mmHg 94%
    20:00 +22°C° 0,8 mm 1 m/s 670 mmHg 95%
    21:00 +21°C° 0,8 mm 1 m/s 670 mmHg 95%
    22:00 +21°C° 0,8 mm 1 m/s 670 mmHg 96%
    23:00 +21°C° 0,1 mm 1 m/s 670 mmHg 96%

    17 Decembrie, Duminică

    Timp Temperatura Precipitaţii Vânt Presiune Umiditate
    00:00 +20°C° 0,1 mm 1 m/s 669 mmHg 97%
    01:00 +20°C° 0,1 mm 1 m/s 669 mmHg 97%
    02:00 +20°C° 0 mm 1 m/s 669 mmHg 97%
    03:00 +20°C° 0 mm 1 m/s 669 mmHg 97%
    04:00 +20°C° 0 mm 1 m/s 669 mmHg 96%
    05:00 +20°C° 0 mm 1 m/s 669 mmHg 95%
    06:00 +21°C° 0 mm 1 m/s 670 mmHg 94%
    07:00 +20°C° 0 mm 0 m/s 670 mmHg 92%
    08:00 +24°C° 0,1 mm 1 m/s 671 mmHg 84%
    09:00 +26°C° 0,1 mm 1 m/s 671 mmHg 76%
    10:00 +28°C° 0,1 mm 1 m/s 671 mmHg 68%
    11:00 +28°C° 0,5 mm 1 m/s 670 mmHg 67%
    12:00 +28°C° 0,5 mm 2 m/s 670 mmHg 66%
    13:00 +29°C° 0,5 mm 2 m/s 669 mmHg 66%
    14:00 +28°C° 1,1 mm 1 m/s 669 mmHg 70%
    15:00 +28°C° 1,1 mm 1 m/s 669 mmHg 75%
    16:00 +27°C° 1,1 mm 1 m/s 669 mmHg 80%
    17:00 +26°C° 1,1 mm 1 m/s 669 mmHg 84%
    18:00 +24°C° 1,1 mm 1 m/s 669 mmHg 88%
    19:00 +22°C° 1,1 mm 1 m/s 669 mmHg 92%
    20:00 +21°C° 0,3 mm 1 m/s 670 mmHg 92%
    21:00 +21°C° 0,3 mm 1 m/s 670 mmHg 93%
    22:00 +21°C° 0,3 mm 1 m/s 670 mmHg 94%
    23:00 +18°C° 0 mm 0 m/s 669 mmHg 94%

    18 Decembrie, Luni

    Timp Temperatura Precipitaţii Vânt Presiune Umiditate
    00:00 +18°C° 0 mm 0 m/s 669 mmHg 95%
    01:00 +18°C° 0 mm 0 m/s 668 mmHg 95%
    02:00 +18°C° 0 mm 0 m/s 668 mmHg 95%
    03:00 +17°C° 0 mm 0 m/s 668 mmHg 95%
    04:00 +17°C° 0 mm 0 m/s 668 mmHg 95%
    05:00 +18°C° 0 mm 0 m/s 669 mmHg 94%
    06:00 +19°C° 0 mm 0 m/s 670 mmHg 93%
    07:00 +22°C° 0 mm 1 m/s 670 mmHg 91%
    08:00 +22°C° 0,2 mm 0 m/s 671 mmHg 84%
    09:00 +25°C° 0,2 mm 0 m/s 671 mmHg 77%
    10:00 +27°C° 0,2 mm 0 m/s 671 mmHg 69%
    11:00 +27°C° 1 mm 0 m/s 670 mmHg 71%
    12:00 +26°C° 1 mm 0 m/s 670 mmHg 73%
    13:00 +28°C° 1 mm 1 m/s 669 mmHg 75%
    14:00 +27°C° 1 mm 1 m/s 669 mmHg 79%
    15:00 +27°C° 1 mm 1 m/s 668 mmHg 83%
    16:00 +26°C° 1 mm 1 m/s 668 mmHg 86%
    17:00 +25°C° 0,7 mm 1 m/s 668 mmHg 88%
    18:00 +23°C° 0,7 mm 1 m/s 668 mmHg 91%
    19:00 +22°C° 0,7 mm 1 m/s 669 mmHg 93%
    20:00 +22°C° 0,2 mm 1 m/s 669 mmHg 93%
    21:00 +21°C° 0,2 mm 1 m/s 669 mmHg 94%
    22:00 +21°C° 0,2 mm 1 m/s 669 mmHg 94%
    23:00 +21°C° 0 mm 1 m/s 669 mmHg 95%
    Arată mai mult